Weather History for K0A9 - January, 2013

Change the Weather History Date:

Wednesday, January 9, 2013

  Actual Average (KTRI) Record (KTRI)
Temperature  
Mean Temperature 40 °F 35 °F  
Max Temperature 48 °F 45 °F 76 °F (1946)
Min Temperature 32 °F 25 °F -4 °F (1970)
Degree Days  
Heating Degree Days 25 30  
Month to date heating degree days 270  
Since 1 July heating degree days 1999  
Cooling Degree Days 0 0  
Month to date cooling degree days 0  
Year to date cooling degree days 0  
Moisture  
Dew Point 39 °F    
Average Humidity 88    
Maximum Humidity 100    
Minimum Humidity 71    
Precipitation  
Precipitation 0.00 in 0.11 in 1.10 in (1957)
Month to date precipitation 0.94  
Year to date precipitation 0.94  
Snow  
Snow 0.00 in 0.20 in - ()
Month to date snowfall 1.3  
Since 1 July snowfall 4.0  
Snow Depth -    
Sea Level Pressure  
Sea Level Pressure 30.41 in    
Wind  
Wind Speed 3 mph (ENE)    
Max Wind Speed 7 mph    
Max Gust Speed -    
Visibility 10 miles    
Events      
T = Trace of Precipitation, MM = Missing Value Source: NWS Daily Summary

Daily Weather History Graph

Daily Weather History Graph

Search for Another Location

Airport or City:

Trip Planner

Search our weather history database for the weather conditions in past years. The results will help you decide how hot, cold, wet, or windy it might be!

Date:

Astronomy

Jan. 09, 2013 Rise Set
Actual Time 7:40 AM EST 5:31 PM EST
Civil Twilight 7:12 AM EST 5:59 PM EST
Nautical Twilight 6:40 AM EST 6:31 PM EST
Astronomical Twilight 6:09 AM EST 7:02 PM EST
Moon 5:18 AM EST (1/9) 3:32 PM EST (1/9)
Length of Visible Light 10h 47m
Length of Day
9h 51m
Waning Crescent, 6% of the Moon is Illuminated
Jan 9
Waning Crescent
Jan 11
New
Jan 18
First Quarter
Jan 26
Full
Feb 3
Last Quarter

Hourly Weather History & Observations

Time (EST) Temp. Windchill Dew Point Humidity Pressure Visibility Wind Dir Wind Speed Gust Speed Precip Events Conditions
12:55 AM 37.4 °F 33.8 °F 30.2 °F 75% 30.33 in 10.0 mi NE 4.6 mph - N/A   Clear
1:15 AM 37.4 °F 33.8 °F 32.0 °F 81% 30.34 in 10.0 mi NE 4.6 mph - N/A   Clear
1:35 AM 37.4 °F 34.9 °F 32.0 °F 81% 30.34 in 10.0 mi NE 3.5 mph - N/A   Clear
1:55 AM 37.4 °F 32.1 °F 32.0 °F 81% 30.34 in 10.0 mi NNE 6.9 mph - N/A   Clear
2:15 AM 35.6 °F 31.7 °F 32.0 °F 87% 30.34 in 10.0 mi ENE 4.6 mph - N/A   Clear
2:35 AM 37.4 °F 33.8 °F 33.8 °F 87% 30.35 in 10.0 mi NE 4.6 mph - N/A   Clear
2:55 AM 35.6 °F 32.8 °F 33.8 °F 93% 30.36 in 10.0 mi ENE 3.5 mph - N/A   Clear
3:15 AM 35.6 °F 31.7 °F 33.8 °F 93% 30.36 in 10.0 mi NE 4.6 mph - N/A   Clear
3:35 AM 35.6 °F 31.7 °F 32.0 °F 87% 30.35 in 10.0 mi NE 4.6 mph - N/A   Clear
3:55 AM 35.6 °F 32.8 °F 33.8 °F 93% 30.35 in 10.0 mi NE 3.5 mph - N/A   Clear
4:15 AM 35.6 °F 32.8 °F 33.8 °F 93% 30.36 in 10.0 mi NE 3.5 mph - N/A   Clear
4:35 AM 35.6 °F 32.8 °F 33.8 °F 93% 30.36 in 10.0 mi NE 3.5 mph - N/A   Clear
4:55 AM 35.6 °F - 33.8 °F 93% 30.36 in 10.0 mi Calm Calm - N/A   Clear
5:15 AM 35.6 °F - 33.8 °F 93% 30.37 in 10.0 mi Calm Calm - N/A   Scattered Clouds
5:35 AM 33.8 °F 30.8 °F 32.0 °F 93% 30.37 in 10.0 mi East 3.5 mph - N/A   Scattered Clouds
5:55 AM 33.8 °F 30.8 °F 32.0 °F 93% 30.37 in 10.0 mi NE 3.5 mph - N/A   Clear
6:15 AM 33.8 °F - 32.0 °F 93% 30.38 in 10.0 mi Calm Calm - N/A   Clear
6:35 AM 32.0 °F - 30.2 °F 93% 30.38 in 10.0 mi Calm Calm - N/A   Clear
6:55 AM 33.8 °F 30.8 °F 32.0 °F 93% 30.39 in 10.0 mi East 3.5 mph - N/A   Partly Cloudy
7:15 AM 32.0 °F 28.7 °F 32.0 °F 100% 30.39 in 10.0 mi East 3.5 mph - N/A   Scattered Clouds
7:55 AM 35.6 °F 32.8 °F 33.8 °F 93% 30.40 in 10.0 mi ENE 3.5 mph - N/A   Scattered Clouds
8:15 AM 35.6 °F - 35.6 °F 100% 30.40 in 10.0 mi Calm Calm - N/A   Mostly Cloudy
8:35 AM 39.2 °F 35.9 °F 35.6 °F 87% 30.41 in 10.0 mi ENE 4.6 mph - N/A   Mostly Cloudy
8:55 AM 41.0 °F 39.0 °F 35.6 °F 81% 30.41 in 10.0 mi ENE 3.5 mph - N/A   Partly Cloudy
9:15 AM 39.2 °F 35.0 °F 35.6 °F 87% 30.41 in 10.0 mi ENE 5.8 mph - N/A   Clear
9:35 AM 39.2 °F 37.0 °F 37.4 °F 93% 30.41 in 10.0 mi East 3.5 mph - N/A   Clear
9:55 AM 42.8 °F 40.1 °F 37.4 °F 81% 30.42 in 10.0 mi NNE 4.6 mph - N/A   Clear
10:15 AM 44.6 °F 42.2 °F 37.4 °F 76% 30.42 in 10.0 mi East 4.6 mph - N/A   Clear
10:35 AM 44.6 °F 43.1 °F 37.4 °F 76% 30.42 in 10.0 mi SE 3.5 mph - N/A   Clear
10:55 AM 46.4 °F - 37.4 °F 71% 30.42 in 10.0 mi Calm Calm - N/A   Clear
11:15 AM 46.4 °F - 37.4 °F 71% 30.41 in 10.0 mi Calm Calm - N/A   Clear
11:35 AM 46.4 °F - 37.4 °F 71% 30.42 in 10.0 mi Calm Calm - N/A   Mostly Cloudy
11:55 AM 46.4 °F - 39.2 °F 76% 30.41 in 10.0 mi Calm Calm - N/A   Light Drizzle
12:15 PM 48.2 °F - 39.2 °F 71% 30.40 in 10.0 mi Calm Calm - N/A   Light Drizzle
12:35 PM 48.2 °F - 39.2 °F 71% 30.40 in 10.0 mi Variable 3.5 mph - N/A   Mostly Cloudy
12:55 PM 46.4 °F 42.9 °F 41.0 °F 81% 30.40 in 10.0 mi SW 6.9 mph - N/A   Light Drizzle
1:15 PM 46.4 °F 44.3 °F 41.0 °F 81% 30.40 in 10.0 mi SW 4.6 mph - N/A   Light Drizzle
1:35 PM 48.2 °F - 41.0 °F 76% 30.40 in 10.0 mi Calm Calm - N/A   Mostly Cloudy
1:55 PM 48.2 °F - 41.0 °F 76% 30.40 in 10.0 mi Calm Calm - N/A   Overcast
2:15 PM 48.2 °F - 41.0 °F 76% 30.41 in 10.0 mi WSW 4.6 mph - N/A   Overcast
2:35 PM 48.2 °F - 41.0 °F 76% 30.42 in 10.0 mi SW 6.9 mph - N/A   Overcast
2:55 PM 46.4 °F 42.9 °F 41.0 °F 81% 30.42 in 10.0 mi SW 6.9 mph - N/A   Light Drizzle
3:15 PM 46.4 °F 45.2 °F 42.8 °F 87% 30.44 in 8.0 mi ESE 3.5 mph - N/A   Light Drizzle
3:35 PM 46.4 °F 45.2 °F 42.8 °F 87% 30.44 in 8.0 mi ENE 3.5 mph - N/A   Drizzle
3:55 PM 44.6 °F 43.1 °F 42.8 °F 93% 30.44 in 3.0 mi NE 3.5 mph - N/A   Light Drizzle
4:15 PM 44.6 °F 43.1 °F 44.6 °F 100% 30.43 in 10.0 mi NE 3.5 mph - N/A   Overcast
4:35 PM 46.4 °F 44.3 °F 42.8 °F 87% 30.43 in 10.0 mi East 4.6 mph - N/A   Overcast
4:55 PM 46.4 °F - 42.8 °F 87% 30.42 in 10.0 mi Calm Calm - N/A   Overcast
5:15 PM 46.4 °F 45.2 °F 44.6 °F 93% 30.40 in 10.0 mi ENE 3.5 mph - N/A   Overcast
5:35 PM 46.4 °F 45.2 °F 44.6 °F 93% 30.41 in 10.0 mi SSE 3.5 mph - N/A   Overcast
5:55 PM 46.4 °F 44.3 °F 44.6 °F 93% 30.42 in 10.0 mi ENE 4.6 mph - N/A   Overcast
6:15 PM 46.4 °F 45.2 °F 44.6 °F 93% 30.42 in 10.0 mi East 3.5 mph - N/A   Overcast
6:35 PM 46.4 °F - 44.6 °F 93% 30.43 in 10.0 mi Calm Calm - N/A   Overcast
6:55 PM 46.4 °F - 44.6 °F 93% 30.44 in 10.0 mi Calm Calm - N/A   Overcast
7:15 PM 46.4 °F - 44.6 °F 93% 30.44 in 10.0 mi Calm Calm - N/A   Overcast
7:35 PM 46.4 °F - 44.6 °F 93% 30.46 in 10.0 mi Calm Calm - N/A   Overcast
7:55 PM 46.4 °F - 44.6 °F 93% 30.45 in 10.0 mi Calm Calm - N/A   Overcast
8:15 PM 46.4 °F - 44.6 °F 93% 30.46 in 10.0 mi Calm Calm - N/A   Overcast
8:35 PM 46.4 °F - 44.6 °F 93% 30.47 in 10.0 mi Calm Calm - N/A   Overcast
8:55 PM 46.4 °F - 44.6 °F 93% 30.47 in 10.0 mi Calm Calm - N/A   Overcast
9:35 PM 46.4 °F - 44.6 °F 93% 30.46 in 10.0 mi Calm Calm - N/A   Mostly Cloudy
9:55 PM 44.6 °F - 42.8 °F 93% 30.47 in 10.0 mi Calm Calm - N/A   Overcast
10:15 PM 44.6 °F - 44.6 °F 100% 30.47 in 9.0 mi Calm Calm - N/A   Mostly Cloudy
10:35 PM 44.6 °F - 44.6 °F 100% 30.47 in 10.0 mi Calm Calm - N/A   Scattered Clouds
10:55 PM 44.6 °F - 42.8 °F 93% 30.48 in 10.0 mi Calm Calm - N/A   Mostly Cloudy
11:15 PM 44.6 °F - 44.6 °F 100% 30.48 in 10.0 mi Calm Calm - N/A   Overcast
11:35 PM 44.6 °F - 44.6 °F 100% 30.48 in 10.0 mi Calm Calm - N/A   Overcast
11:55 PM 44.6 °F - 44.6 °F 100% 30.48 in 10.0 mi Calm Calm - N/A   Overcast